Overview Statistics Trail Chart Weather Telemetry Raw packets
 

This is the latest recevied weather packets stored in our database for station/object HA9OZD-18. If no packets are shown the sender has not sent any weather packets the latest 10 day(s).

<< 8 9 10 11 12 >>
Time Temp. Humidity Pressure Rain* Wind** Luminosity Snow
1787931934 20.56° C 32% 1017.4 hPa - - - -
1787928333 22.22° C 30% 1018.2 hPa - - - -
1787924733 25° C 26% 1018.5 hPa - - - -
1787921133 31.11° C 20% 1018.9 hPa - - - -
1787917536 25° C 29% 1019.3 hPa - - - -
1787913932 22.22° C 35% 1019.8 hPa - - - -
1787910332 21.11° C 37% 1020.1 hPa - - - -
1787906732 19.44° C 41% 1020.3 hPa - - - -
1787903131 17.78° C 52% 1019.9 hPa - - - -
1787899531 15° C 67% 1020.1 hPa - - - -
1787896594 12.78° C 80% 1020 hPa - - - -
1787895931 12.78° C 80% 1020 hPa - - - -
1787892331 11.67° C 84% 1019.9 hPa - - - -
1787889609 11.67° C 78% 1019.6 hPa - - - -
1787888730 11.67° C 78% 1019.6 hPa - - - -
1787885130 11.67° C 72% 1019.5 hPa - - - -
1787881530 12.22° C 68% 1019.7 hPa - - - -
1787877939 12.78° C 65% 1020.1 hPa - - - -
1787877929 12.78° C 65% 1020.1 hPa - - - -
1787874329 13.33° C 63% 1020.5 hPa - - - -
1787870729 13.33° C 60% 1020.5 hPa - - - -
1787867170 13.89° C 59% 1020.7 hPa - - - -
1787867129 13.89° C 59% 1020.7 hPa - - - -
1787863528 14.44° C 58% 1020.6 hPa - - - -
1787859928 15° C 54% 1020.6 hPa - - - -

* Rain since midnight (hover to see other rain measurements)
** Current wind speed in m/s (hover to see current wind gust speed)